MIDAS 4 DEB, 195

Orbit data source: Space-Track

MIDAS 4 DEB, 195 is space debris in LEO originally from a launch on Sat, 21 Oct 1961 UTC launched from the Air Force Western Test Range (AFWTR). Debris objects in space refer to the collection of defunct objects orbiting the Earth. Examples of debris include non-operational satellites, rocket bodies, and fragments generated from explosions, collisions, or faulty payload assembly.

Loading next visibility...
MIDAS 4 DEB details
Identifier
195, 1961-028D
Orbit
LEO
Last TLE update1 day ago
Origin
Flag of USUSAF SSD (US)
ManufacturerUnknown
MissionSpacecraft
Bus & MotorUnknown
Mass~10 kg wet, ~10 kg dry
Launch date (UTC)
1961-10-21 (63 years ago)
Launch vehicleUnknown
Launch site
Air Force Western Test Range (AFWTR)
Object type
Payload
Rocket body
Debris
Shape & HBRUnknown
Radar Cross SectionMedium (>0.1 m² and <1 m²)

Expand to show TLE details & history

TLE from 1 day ago
0 MIDAS 4 DEB
1 00195U 61028D   24355.19704873  .00000030  00000-0  15487-1 0  9999
2 00195  95.8786  90.4738 0125924 236.5524 122.3233  8.65618037995981
Epoch: 2024-12-20T04:43Z
Definitive object data (Epoch: 2024-12-20T04:43:45.01Z)
Latitude0.00001°
Longitude-69.72976°
Altitude3,712.22 km
Speed6.264 km/s
True Right ascension06h 01m 53s
True Declination0° 00' 00"
Sunlit
Object was in full shadow at TLE epoch
Visualization TLE readout
Latitude16.49373°
Longitude112.28838°
Altitude3,602.34 km
Speed6.334 km/s
Apparent Right ascension19h 49m 59s
Apparent Declination-6° 13' 57"
Sunlit
Object is in daylight
Visualization observer readout
Local Sidereal Time11:32:43
Azimuth71.398° E
Elevation-29.968°
Doppler factor1
Orbital elements
Apogee altitude3,765.498 km
Perigee altitude3,513.21 km
Semi-major axis10,017.491 km
Eccentricity0.0125924
Inclination95.8786°
RAAN90.4738°
Arg. of periapsis236.5524°
True anomaly123.53241°
Mean anomaly122.3233°
Eccentric anomaly122.92888°
Mean motion2.16473 °/min
BSTAR0.015487
Orbital period166.3 mins
Loading maneuver chart data...
Loading historical data...
Loading historical data...
Loading historical data...
Loading historical data...
Loading historical data...
Loading historical data...
Loading historical data...

MIDAS 4 DEB Visibility forecast

Observer location: undefined°, undefined

Span
Click to sort rows by Start time (UTC) header in descending order
Start Az.
Max El. time (UTC)
Max El. Az.
Max El.
End time (UTC)
End Az.
35 mins2024-12-21 17:35:54.651Z15.82° NNE2024-12-21 17:53:54.651Z90.979° ESE36.765°2024-12-21 18:10:54.651Z160.656° S
33 mins2024-12-21 20:20:54.651Z2.913° NNE2024-12-21 20:36:54.651Z296.48° NW38.729°2024-12-21 20:53:54.651Z225.395° WSW
12 mins2024-12-21 23:07:54.651Z348.032° N2024-12-21 23:12:54.651Z331.127° NNW13.596°2024-12-21 23:19:54.651Z307.342° NW
29 mins2024-12-22 04:02:54.651Z104.628° ESE2024-12-22 04:16:54.651Z53.123° ENE28.172°2024-12-22 04:31:54.651Z359.205° N
37 mins2024-12-22 06:39:54.651Z172.646° S2024-12-22 06:57:54.651Z268.589° W44.592°2024-12-22 07:16:54.651Z349.996° N
22 mins2024-12-22 09:34:54.651Z252.836° W2024-12-22 09:45:54.651Z290.988° WNW17.296°2024-12-22 09:56:54.651Z328.299° NNW
|